Flag for United Kingdom Weather past 2 weeks in Brighton, England, United Kingdom

Now
57 °F

Passing clouds.


Feels Like: 56 °F
Forecast: 57 / 68 °F
Wind: 6 mph from Southwest

Location: London / Gatwick Airport

Current Time: Aug 29, 2014 at 4:53:15 AM

Latest Report: Aug 29, 2014 at 4:20 AM


Visibility: 6 mi

Pressure: 29.92 "Hg

Humidity: 94%

Dew point: 55 °F

Location of BrightonLocation

Historic Weather in Brighton — Graph

°F

Brighton temperature yesterday

Maximum temperature yesterday: 70 °F (at 1:50 PM)
Minimum temperature yesterday: 57 °F (at 11:50 PM)
Average temperature yesterday: 64 °F

Past Weeks' High & Low Weather Summary

 TemperatureHumidityPressure
High70 °F (Aug 28, 1:50 PM)100% (Aug 20, 6:20 AM)30.18 "Hg (Aug 20, 6:20 AM)
Low41 °F (Aug 21, 5:50 AM)40% (Aug 22, 3:20 PM)29.56 "Hg (Aug 25, 7:20 PM)
Average59 °F76%29.92 "Hg
* Reported Aug 14 3:20 AM — Aug 29 3:50 AM, Brighton, Weather by CustomWeather, © 2014

Note: Actual official high and low records may vary slightly from our data, if they occured in-between our weather recording intervals... More about our weather records

Advertising

Brighton weather history for previous 24 hours

 ConditionsComfort  
Time TempWeatherWind HumidityBarometerVisibility
3:50 AM
Aug 29
57 °FPassing clouds.7 mph94%29.92 "Hg5 mi
3:20 AM57 °FPassing clouds.7 mph94%29.92 "Hg5 mi
2:50 AM57 °FPassing clouds.6 mph94%29.92 "Hg5 mi
2:20 AM57 °FPassing clouds.6 mph94%29.92 "Hg5 mi
1:50 AM57 °FPassing clouds.6 mph94%29.92 "Hg6 mi
1:20 AM57 °FPassing clouds.5 mph94%29.92 "Hg6 mi
12:50 AM59 °FPassing clouds.7 mph88%29.92 "Hg6 mi
12:20 AM57 °FClear.6 mph94%29.92 "Hg10 mi
11:50 PM
Aug 28
57 °FClear.6 mph94%29.92 "Hg10 mi
11:20 PM59 °FPassing clouds.8 mph88%29.92 "HgN/A
10:20 PM59 °FClear.7 mph88%29.92 "Hg10 mi
9:50 PM59 °FClear.8 mph88%29.92 "Hg10 mi
9:20 PM59 °FClear.8 mph88%29.92 "Hg10 mi
8:50 PM61 °FSunny.8 mph83%29.92 "Hg10 mi
8:20 PM61 °FSunny.8 mph83%29.89 "Hg10 mi
7:50 PM63 °FSunny.9 mph77%29.89 "Hg10 mi
7:20 PM64 °FPassing clouds.9 mph73%29.89 "HgN/A
6:50 PM66 °FPassing clouds.12 mph68%29.89 "HgN/A
6:20 PM64 °FPassing clouds.10 mph78%29.89 "HgN/A
5:50 PM64 °FPassing clouds.10 mph83%29.89 "HgN/A
5:20 PM66 °FScattered clouds.13 mph78%29.89 "HgN/A
4:50 PM66 °FScattered showers. Partly sunny.9 mph78%29.89 "HgN/A
4:20 PM66 °FBroken clouds.13 mph78%29.89 "HgN/A
3:50 PM68 °FPartly sunny.14 mph73%29.89 "HgN/A
3:20 PM70 °FScattered clouds.13 mph69%29.89 "HgN/A
2:50 PM70 °FScattered clouds.14 mph64%29.89 "HgN/A
2:20 PM70 °FPassing clouds.14 mph64%29.89 "HgN/A
1:50 PM70 °FPassing clouds.13 mph64%29.89 "HgN/A
1:20 PM68 °FPassing clouds.13 mph64%29.89 "HgN/A
12:50 PM68 °FScattered clouds.13 mph69%29.89 "HgN/A
12:20 PM66 °FBroken clouds.14 mph73%29.89 "HgN/A
11:50 AM64 °FScattered clouds.10 mph78%29.86 "HgN/A
11:20 AM64 °FPartly sunny.10 mph83%29.86 "HgN/A
10:50 AM64 °FBroken clouds.9 mph83%29.86 "HgN/A
10:20 AM63 °FBroken clouds.8 mph94%29.86 "HgN/A
9:50 AM63 °FBroken clouds.6 mph94%29.86 "HgN/A
9:20 AM63 °FBroken clouds.7 mph94%29.86 "HgN/A
8:50 AM63 °FBroken clouds.6 mph94%29.83 "HgN/A
8:20 AM63 °FLight rain. Broken clouds.8 mph88%29.83 "Hg6 mi
7:50 AM63 °FPartly sunny.6 mph94%29.83 "HgN/A
7:20 AM63 °FBroken clouds.7 mph94%29.83 "HgN/A
6:50 AM63 °FLight rain. Passing clouds.6 mph94%29.83 "Hg3 mi
6:20 AM63 °FLight rain. Partly cloudy.7 mph100%29.80 "Hg4 mi
5:50 AM63 °FPassing clouds.7 mph100%29.80 "HgN/A
5:20 AM63 °FPassing clouds.6 mph100%29.80 "Hg2 mi
4:50 AM63 °FPassing clouds.7 mph100%29.80 "Hg2 mi
4:20 AM63 °FPassing clouds.6 mph100%29.80 "Hg3 mi
Weather by CustomWeather, © 2014

See weather overviewHow to use our weather pages